{"data":{"norad_id":67376,"intl_designator":"2026-004P","name":"AETHER-5","alt_names":[],"object_type":"PAYLOAD","status":"ACTIVE","operator":null,"country":"CA","launch_date":"2026-01-11","launch_site_code":"AFWTR","launch_vehicle":null,"mission":null,"orbit_class":"UNKNOWN","rcs_meters":null,"size_class":null,"mass_kg":null,"dimensions":null,"purposes":[],"wikipedia_slug":null,"has_3d_model":false,"image_url":null,"decayed_at":null,"tle_current":{"epoch":"2026-05-24T23:43:13.261152Z","epoch_age_seconds":72120,"freshness":"FRESH","line1":"1 67376U 26004P   26144.98834793  .00000547  00000+0  68121-4 0  9996","line2":"2 67376  97.8037 143.9645 0003101 183.6187 176.5006 14.86341352 19840","mean_motion":14.86341352,"eccentricity":0.0003101,"inclination_deg":97.8037,"raan_deg":143.9645,"arg_perigee_deg":183.6187,"mean_anomaly_deg":176.5006,"bstar":6.8121e-5,"rev_number":1984,"period_min":96.882186454838,"perigee_km":607.21193922729,"apogee_km":611.54559650652,"semimajor_km":6987.5157678669,"source":"CELESTRAK","updated_at":"2026-05-25T13:38:06.930013Z"}}}